Other Public Products
Issued by NWS Charleston, SC

Current Version | Previous Version | Text Only | Print | Product List | Glossary Off
Versions: 1 2 3 4 5 6 7 8 9 10 11 12 13 14 15 16 17 18 19 20 21 22 23 24 25 26 27 28 29 30 31 32 33 34 35 36 37 38 39 40 41 42 43 44 45 46 47 48 49 50
777 FPUS82 KCHS 171727 OPUCHS TEST...KCHS/KSAV Gateway Observations...TEST National Weather Service Charleston SC 1200 PM EST FRI NOV 17 2017 NOTE: "fair" indicates few or no clouds below 12,000 feet with no significant weather and/or obstructions to visibility. SCZ050-WAZ558-NCZ071-TXZ119-213-PAZ071-DCZ001-FLZ074-172-MI076- NYZ176-178-MAZ016-IL014-TNZ027-NJZ106-GAZ044-MD014-171800- ...Gateway Observations for Charleston International... CITY SKY/WX TMP DP RH WIND PRES REMARKS Chas Airport SUNNY 61 37 41 NE7 30.19F Seattle PTSUNNY 43 38 82 S10 30.02R Charlotte MOSUNNY 56 32 40 SE5 30.21F Dallas DFW PTSUNNY 78 66 66 S18G25 29.90F Dallas Love CLOUDY 76 65 68 SW13G24 29.92F Philladelphia MOSUNNY 48 22 35 NW17G25 30.14F Wash National MOSUNNY 51 30 44 NW12 30.20F Baltimore MOSUNNY 49 28 44 NW12 30.18F Miami PTSUNNY 80 63 55 NE13 30.02F Detroit CLOUDY 40 30 67 S14 30.19F WCI 32 Newark MOSUNNY 48 22 35 W14 30.07F Laguardia MOSUNNY 45 25 45 NW21G28 30.05F J F K MOSUNNY 46 24 42 W21G29 30.06F Boston Logan MOSUNNY 42 23 46 NW21G31 29.88S Ft. Lauderdale PTSUNNY 77 66 68 NE14G22 30.01F Chicago O`Hare CLOUDY 40 31 70 S18 29.97F WCI 31 Chicago Midway CLOUDY 42 32 67 S10G21 29.99F Houston Bush PTSUNNY 82 69 64 S10G18 30.01F Houston Hobby MOSUNNY 80 69 69 S14 30.03F Nashville PTSUNNY 53 41 63 S7 30.15F Atlanta MOSUNNY 61 41 47 SE5 30.17F $$ GAZ044-118-TXZ119-213-NCZ071-DCZ001-MDZ014-506-PAZ021-071-NJZ106- NYZ176-178-MAZ106-OHZ011-021-055-MIZ076-KYZ091-ILZ014-INZ047- MNZ060-ONZ431-171800- ...Gateway Observations for Savannah International... CITY SKY/WX TMP DP RH WIND PRES REMARKS Savannah Arpt SUNNY 66 43 43 E9 30.18F Atlanta MOSUNNY 61 41 47 SE5 30.17F Charlotte MOSUNNY 56 32 40 SE5 30.21F Dallas DFW PTSUNNY 78 66 66 S18G25 29.90F Houston Bush PTSUNNY 82 69 64 S10G18 30.01F Wash National MOSUNNY 51 30 44 NW12 30.20F Wash Dulles MOSUNNY 50 29 44 NW13 30.20F Baltimore MOSUNNY 49 28 44 NW12 30.18F Philadelphia MOSUNNY 48 22 35 NW17G25 30.14F Newark MOSUNNY 48 22 35 W14 30.07F Laguardia MOSUNNY 45 25 45 NW21G28 30.05F J F K MOSUNNY 46 24 42 W21G29 30.06F Boston MOSUNNY 42 23 46 NW21G31 29.88S Pittsburg PTSUNNY 40 27 59 NW6 30.23F WCI 36 Akron PTSUNNY 42 28 57 S10 30.20F Cleveland PTSUNNY 44 30 57 S8 30.23F Cincinnati MOSUNNY 43 33 68 SE10 30.16F Columbus SUNNY 43 32 65 SE7 30.18F Detroit CLOUDY 40 30 67 S14 30.19F WCI 32 Chicago O`Hare CLOUDY 40 31 70 S18 29.97F WCI 31 Minneapolis DRIZZLE 37 36 96 S9 29.67F FOG WCI 30 Indianapolis CLOUDY 40 32 73 S13 30.11F WCI 32 Toronto Canada PTSUNNY 32 19 59 VRB2 30.21F $$

USA.gov is the U.S. government's official web portal to all federal, state and local government web resources and services.